Weather History for Ainsworth, NE

Change the Weather History Date:

Friday, May 2, 2014

  Actual Average Record
Temperature  
Mean Temperature 51 °F -  
Max Temperature 67 °F 62 °F 80 °F (2006)
Min Temperature 36 °F 40 °F 28 °F (2002)
Degree Days  
Heating Degree Days 14    
Growing Degree Days 1 (Base 50)    
Moisture  
Dew Point 36 °F    
Average Humidity 56    
Maximum Humidity 81    
Minimum Humidity 27    
Precipitation  
Precipitation 0.00 in - - ()
Sea Level Pressure  
Sea Level Pressure 29.90 in    
Wind  
Wind Speed 11 mph (NW)    
Max Wind Speed 22 mph    
Max Gust Speed 29 mph    
Visibility 10 miles    
Events      
Averages and records for this station are not official NWS values.
T = Trace of Precipitation, MM = Missing Value Source: NWS Daily Summary

Daily Weather History Graph

Daily Weather History Graph

Search for Another Location

Airport:

Trip Planner

Search our weather history database for the weather conditions in past years. The results will help you decide how hot, cold, wet, or windy it might be!

Date:

Astronomy

May. 02, 2014 Rise Set
Actual Time 6:33 AM CDT 8:41 PM CDT
Civil Twilight 6:02 AM CDT 9:12 PM CDT
Nautical Twilight 5:24 AM CDT 9:50 PM CDT
Astronomical Twilight 4:42 AM CDT 10:32 PM CDT
Moon 9:10 AM CDT (5/2) No Moon Set
Length of Visible Light 15h 09m
Length of Day
14h 07m
Waxing Crescent, 12% of the Moon is Illuminated
May 2
Waxing Crescent
May 6
First Quarter
May 14
Full
May 21
Last Quarter
May 28
New

Hourly Weather History & Observations

Time (CDT) Temp. Windchill Dew Point Humidity Pressure Visibility Wind Dir Wind Speed Gust Speed Precip Events Conditions
12:15 AM 39.0 °F 33.4 °F 29.7 °F 69% 30.01 in 10.0 mi WSW 8.1 mph - N/A   Clear
12:35 AM 38.7 °F 34.3 °F 29.8 °F 71% 30.00 in 10.0 mi WSW 5.8 mph - N/A   Clear
12:55 AM 37.6 °F 32.3 °F 29.7 °F 73% 29.99 in 10.0 mi WSW 6.9 mph - N/A   Clear
1:15 AM 36.9 °F 31.4 °F 30.2 °F 77% 29.99 in 10.0 mi WSW 6.9 mph - N/A   Clear
1:35 AM 36.5 °F 30.3 °F 29.8 °F 77% 29.98 in 10.0 mi WSW 8.1 mph - N/A   Clear
1:55 AM 36.5 °F 30.3 °F 30.2 °F 78% 29.98 in 10.0 mi WSW 8.1 mph - N/A   Clear
2:15 AM 37.0 °F 31.6 °F 30.2 °F 76% 29.97 in 10.0 mi WSW 6.9 mph - N/A   Clear
2:35 AM 36.3 °F 30.8 °F 30.2 °F 78% 29.97 in 10.0 mi WSW 6.9 mph - N/A   Clear
2:55 AM 36.9 °F 31.4 °F 30.6 °F 78% 29.96 in 10.0 mi WSW 6.9 mph - N/A   Clear
3:15 AM 36.5 °F 31.0 °F 30.7 °F 80% 29.96 in 10.0 mi WSW 6.9 mph - N/A   Clear
3:35 AM 37.6 °F 31.0 °F 31.1 °F 77% 29.95 in 10.0 mi WSW 9.2 mph - N/A   Clear
3:55 AM 37.6 °F 31.6 °F 31.1 °F 77% 29.94 in 10.0 mi WSW 8.1 mph - N/A   Clear
4:15 AM 37.6 °F 31.0 °F 30.9 °F 77% 29.94 in 10.0 mi WSW 9.2 mph - N/A   Clear
4:35 AM 38.3 °F 30.9 °F 31.1 °F 75% 29.94 in 10.0 mi WSW 11.5 mph - N/A   Scattered Clouds
4:55 AM 38.3 °F 31.4 °F 31.1 °F 75% 29.92 in 10.0 mi WSW 10.4 mph - N/A   Scattered Clouds
5:15 AM 38.8 °F 32.1 °F 31.1 °F 74% 29.92 in 10.0 mi WSW 10.4 mph - N/A   Scattered Clouds
5:35 AM 39.0 °F 32.8 °F 31.1 °F 73% 29.91 in 10.0 mi WSW 9.2 mph - N/A   Scattered Clouds
5:55 AM 40.1 °F 33.6 °F 31.3 °F 71% 29.91 in 10.0 mi WSW 10.4 mph - N/A   Clear
6:15 AM 41.7 °F 36.1 °F 31.6 °F 67% 29.89 in 10.0 mi WSW 9.2 mph - N/A   Scattered Clouds
6:35 AM 41.2 °F 34.5 °F 31.1 °F 67% 29.88 in 10.0 mi WSW 11.5 mph - N/A   Clear
6:55 AM 42.6 °F 34.6 °F 31.1 °F 64% 29.87 in 10.0 mi WSW 17.3 mph - N/A   Clear
7:15 AM 43.7 °F 36.9 °F 31.5 °F 62% 29.88 in 10.0 mi WSW 13.8 mph - N/A   Clear
7:35 AM 45.1 °F 39.1 °F 32.0 °F 60% 29.88 in 10.0 mi West 12.7 mph - N/A   Clear
7:55 AM 46.6 °F - 32.0 °F 57% 29.88 in 10.0 mi West 13.8 mph - N/A   Clear
8:15 AM 49.3 °F - 32.5 °F 53% 29.88 in 10.0 mi West 13.8 mph - N/A   Clear
8:35 AM 51.4 °F - 32.2 °F 48% 29.88 in 10.0 mi West 15.0 mph - N/A   Clear
8:55 AM 54.0 °F - 31.8 °F 43% 29.87 in 10.0 mi West 17.3 mph 20.7 mph N/A   Clear
9:15 AM 56.1 °F - 31.1 °F 39% 29.87 in 10.0 mi West 17.3 mph 23.0 mph N/A   Clear
9:35 AM 58.5 °F - 30.4 °F 34% 29.87 in 10.0 mi West 16.1 mph 27.6 mph N/A   Clear
9:55 AM 60.1 °F - 30.2 °F 32% 29.86 in 10.0 mi West 18.4 mph 26.5 mph N/A   Clear
10:15 AM 62.1 °F - 30.7 °F 31% 29.86 in 10.0 mi West 20.7 mph 24.2 mph N/A   Clear
10:35 AM 63.9 °F - 31.1 °F 29% 29.86 in 10.0 mi West 20.7 mph 24.2 mph N/A   Clear
10:55 AM 65.5 °F - 30.4 °F 27% 29.86 in 10.0 mi WNW 18.4 mph 24.2 mph N/A   Clear
11:15 AM 66.0 °F - 31.6 °F 28% 29.87 in 10.0 mi NW 19.6 mph 25.3 mph N/A   Clear
11:35 AM 66.2 °F - 32.0 °F 28% 29.87 in 10.0 mi NW 20.7 mph 25.3 mph N/A   Clear
11:55 AM 66.2 °F - 32.0 °F 28% 29.87 in 10.0 mi NNW 19.6 mph 26.5 mph N/A   Clear
12:15 PM 66.7 °F - 34.2 °F 30% 29.87 in 10.0 mi North 21.9 mph 28.8 mph N/A   Clear
12:35 PM 64.9 °F - 36.1 °F 34% 29.87 in 10.0 mi North 17.3 mph 24.2 mph N/A   Clear
12:55 PM 65.3 °F - 37.4 °F 36% 29.88 in 10.0 mi NNW 15.0 mph - N/A   Clear
1:15 PM 64.4 °F - 40.3 °F 41% 29.88 in 10.0 mi North 13.8 mph 19.6 mph N/A   Clear
1:35 PM 64.9 °F - 42.3 °F 44% 29.87 in 10.0 mi North 12.7 mph 23.0 mph N/A   Clear
1:55 PM 64.9 °F - 41.9 °F 43% 29.87 in 10.0 mi North 13.8 mph 20.7 mph N/A   Clear
2:15 PM 63.3 °F - 40.8 °F 44% 29.87 in 10.0 mi North 16.1 mph 23.0 mph N/A   Clear
2:35 PM 63.9 °F - 41.0 °F 43% 29.86 in 10.0 mi North 9.2 mph 17.3 mph N/A   Clear
2:55 PM 62.6 °F - 40.1 °F 44% 29.85 in 10.0 mi North 11.5 mph - N/A   Clear
3:15 PM 63.3 °F - 39.7 °F 42% 29.85 in 10.0 mi North 13.8 mph 19.6 mph N/A   Clear
3:35 PM 62.6 °F - 39.7 °F 43% 29.85 in 10.0 mi North 10.4 mph - N/A   Clear
3:55 PM 61.7 °F - 40.1 °F 45% 29.85 in 10.0 mi North 9.2 mph - N/A   Mostly Cloudy
4:15 PM 62.8 °F - 41.0 °F 45% 29.85 in 10.0 mi North 9.2 mph - N/A   Mostly Cloudy
4:35 PM 64.0 °F - 41.4 °F 43% 29.85 in 10.0 mi North 8.1 mph - N/A   Scattered Clouds
4:55 PM 64.9 °F - 41.2 °F 42% 29.85 in 10.0 mi NNW 13.8 mph 17.3 mph N/A   Clear
5:15 PM 65.3 °F - 40.8 °F 41% 29.85 in 10.0 mi North 11.5 mph 17.3 mph N/A   Clear
5:35 PM 65.1 °F - 41.0 °F 41% 29.85 in 10.0 mi North 16.1 mph 21.9 mph N/A   Clear
5:55 PM 63.9 °F - 40.5 °F 42% 29.86 in 10.0 mi North 17.3 mph - N/A   Clear
6:15 PM 63.1 °F - 41.2 °F 45% 29.86 in 10.0 mi North 13.8 mph 23.0 mph N/A   Scattered Clouds
6:35 PM 63.0 °F - 41.5 °F 45% 29.87 in 10.0 mi North 15.0 mph 25.3 mph N/A   Scattered Clouds
6:55 PM 60.4 °F - 41.0 °F 49% 29.87 in 10.0 mi North 15.0 mph - N/A   Mostly Cloudy
7:15 PM 60.1 °F - 41.7 °F 51% 29.87 in 10.0 mi NNE 12.7 mph - N/A   Mostly Cloudy
7:35 PM 58.5 °F - 41.5 °F 53% 29.87 in 10.0 mi NNE 12.7 mph 17.3 mph N/A   Mostly Cloudy
7:55 PM 57.4 °F - 41.5 °F 56% 29.88 in 10.0 mi North 8.1 mph - N/A   Scattered Clouds
8:15 PM 55.9 °F - 41.5 °F 58% 29.88 in 10.0 mi NNE 10.4 mph - N/A   Scattered Clouds
8:35 PM 54.7 °F - 40.8 °F 60% 29.89 in 10.0 mi NNE 10.4 mph - N/A   Clear
8:55 PM 53.4 °F - 40.6 °F 62% 29.90 in 10.0 mi NNE 6.9 mph - N/A   Clear
9:15 PM 51.1 °F - 40.5 °F 67% 29.90 in 10.0 mi North 5.8 mph - N/A   Clear
9:35 PM 49.6 °F - 41.0 °F 72% 29.91 in 10.0 mi North 5.8 mph - N/A   Clear
9:55 PM 49.1 °F - 40.6 °F 73% 29.91 in 10.0 mi North 6.9 mph - N/A   Clear
10:15 PM 46.8 °F - 40.1 °F 78% 29.92 in 10.0 mi North 6.9 mph - N/A   Clear
10:35 PM 46.8 °F - 39.9 °F 77% 29.92 in 10.0 mi North 4.6 mph - N/A   Clear
10:55 PM 46.6 °F - 39.2 °F 75% 29.92 in 10.0 mi Calm Calm - N/A   Clear
11:15 PM 44.8 °F - 38.5 °F 79% 29.92 in 10.0 mi Calm Calm - N/A   Clear
11:35 PM 44.1 °F 41.5 °F 38.5 °F 81% 29.92 in 10.0 mi SW 4.6 mph - N/A   Clear
11:55 PM 45.9 °F 44.6 °F 39.2 °F 78% 29.93 in 10.0 mi West 3.5 mph - N/A   Clear